www.pogodaiklimat.ru

Погода и климат >> Архив погоды >> Алжир >> Грис


ПОГОДА в Грисе

  • Прогноз погоды в Грисе
  • Монитор погоды в Грисе

АРХИВ ПОГОДЫ в Грисе

Время (UTC), дата Ветер
(напр.,м/с)
 
Видим.   Явления Облачность Т
(С)
Тd
(С)
f
(%)
Тe
(С)
Тes
(С)
Комфортность P
(гПа)
Po
(гПа)
Тmin
(С)
Tmax
(С)
R
(мм)
R24
(мм)
S
(см)
21 8.02 Ю 1 10 км ясно +7.7 +5.7 87 +7 +7 1024.5 962.5
00 9.02 Ю 2 10 км ясно +7.1 +4.6 84 +5 +5 1023.4 961.3
03 9.02 штиль 0 10 км ясно +4.2 +3.2 93 +3 +3 1023.2 960.5
06 9.02 ЮВ 1 10 км ясно +3.4 +2.4 93 +2 +2 1024.6 961.7 +2.7
09 9.02 СЗ 1 20 км ясно +6.7 +5.1 90 +6 +10 1026.1 963.8
12 9.02 СВ 2 25 км ясно +18.0 +3.9 39 +19 +29 1024.3 964.4
15 9.02 С 3 25 км ясно +20.8 +5.2 36 +22 +25 комфорт 1022.3 963.1
18 9.02 СЗ 3 15 км ясно +14.0 +7.0 63 +13 +13 1023.6 963.0 +21.1
21 9.02 ЮВ 2 10 км ясно +9.4 +7.1 86 +8 +8 1025.2 963.5
00 10.02 Ю 2 10 км ясно +7.8 +5.8 87 +6 +6 1024.3 962.3
03 10.02 СЗ 2 10 км ясно +5.1 +3.9 92 +3 +3 1023.9 961.4
06 10.02 З 2 10 км ясно +3.1 +2.1 93 +1 +1 1025.0 962.0 +3.1
09 10.02 СЗ 1 25 км ясно +7.2 +5.4 88 +6 +11 1026.5 964.3
12 10.02 З 1 25 км 1/0
[Ci sp]
+20.0 +2.1 30 +21 +32 комфорт 1025.4 965.9
15 10.02 З 5 25 км 5/0
[Ci sp]
+21.4 +1.6 27 +21 +23 комфорт 1024.0 964.8
18 10.02 СЗ 5 15 км 8/0
[Ci sp]
+14.0 +3.2 48 +12 +12 1025.4 964.7 +21.5
21 10.02 СВ 2 10 км 8/0
[Ci sp]
+9.0 +3.9 70 +7 +7 1026.5 964.7
00 11.02 штиль 0 10 км 8/0
[Ci sp]
+8.0 +3.5 73 +7 +7 1026.0 964.0
03 11.02 штиль 0 10 км 3/0
[Ci sp]
+5.2 +3.0 86 +4 +4 1025.6 963.0
06 11.02 штиль 0 10 км 3/0
[Ci sp]
+2.0 +0.7 91 +1 +1 1026.9 963.5 +2.0
09 11.02 штиль 0 10 км 4/0
[Ci sp]
+7.0 +2.3 72 +6 +11 1028.9 966.5
12 11.02 СЗ 3 15 км 6/4 900 м
[Cu med, cong Ci sp]
+15.3 +7.7 60 +15 +20 1027.5 966.9
15 11.02 СЗ 2 20 км 5/3 900 м
[Cu med, cong Ci sp]
+17.3 +6.5 49 +18 +20 1025.7 965.6
18 11.02 С 4 15 км 3/3 900 м
[Cu med, cong]
+12.5 +6.6 67 +11 +11 1027.0 965.9 +17.4
21 11.02 СВ 2 10 км 1/0
[Ci sp]
+9.7 +7.9 89 +8 +8 1028.8 967.0
00 12.02 ЮВ 1 10 км ясно +8.2 +7.3 94 +7 +7 1029.3 967.1
03 12.02 штиль 0 10 км ясно +7.3 +6.4 94 +6 +6 1029.0 966.6
06 12.02 штиль 0 200 м туман ясно +8.0 +8.0 100 +7 +7 1028.5 966.3 +7.0
09 12.02 ЮЗ 1 400 м туман ясно +8.4 +8.4 100 +7 +12 1030.8 968.6
12 12.02 С 2 15 км {туман} 4/4 600 м
[Cu med, cong]
+14.2 +6.0 58 +14 +20 1030.0 969.0
15 12.02 СВ 5 25 км 3/3 700 м
[Sc]
+15.6 +4.6 48 +15 +16 1028.8 968.2
18 12.02 СВ 4 15 км ясно +11.1 +4.9 66 +9 +9 1030.3 968.7 +15.8
21 12.02 Ю 2 10 км ясно +6.8 +3.0 77 +5 +5 1031.9 969.3
00 13.02 ЮВ 3 10 км ясно +8.0 -0.2 56 +6 +6 1031.3 969.0
03 13.02 В 2 10 км ясно +5.6 -0.2 66 +3 +3 1029.9 967.1
06 13.02 Ю 4 10 км ясно +4.0 -0.7 71 -0 -0 1030.9 967.7 +4.0
09 13.02 Ю 3 25 км ясно +11.2 +0.5 48 +10 +14 1031.4 969.7
12 13.02 ЮЗ 3 25 км ясно +18.0 +1.7 33 +18 +27 1029.2 969.1
15 13.02 СВ 2 25 км ясно +20.0 +3.7 34 +21 +26 комфорт 1027.2 967.6
18 13.02 СВ 6 15 км ясно +15.0 +4.6 50 +13 +13 1027.6 966.9 +20.4
21 13.02 Ю 2 10 км ясно +9.1 +5.3 77 +7 +7 1028.6 966.7
00 14.02 Ю 2 10 км ясно +7.2 +4.7 84 +5 +5 1029.2 966.8
03 14.02 Ю 6 10 км ясно +8.2 +2.7 68 +5 +5 1028.3 966.2
06 14.02 ЮВ 5 10 км ясно +9.8 -0.6 48 +7 +7 1029.5 967.6 +6.2
09 14.02 Ю 5 15 км ясно +13.3 +1.0 43 +12 +14 1031.0 969.8
12 14.02 штиль 0 10 км ясно +18.5 +2.9 35 +19 +32 опасность
простуды
1030.2 970.1
15 14.02 С 3 10 км ясно +20.7 +3.3 32 +22 +25 комфорт 1027.7 968.2
18 14.02 СВ 4 10 км ясно +14.5 +5.1 53 +13 +13 1027.7 966.9 +22.5
21 14.02 Ю 1 10 км ясно +11.5 +4.9 64 +12 +12 1028.6 967.2
00 15.02 штиль 0 10 км ясно +9.0 +3.4 68 +8 +8 1028.4 966.4
03 15.02 ЮВ 5 10 км ясно +9.5 -5.9 33 +7 +7 1027.5 965.7
06 15.02 Ю 5 10 км ясно +8.5 -4.6 39 +6 +6 1028.1 966.1 +8.5
09 15.02 Ю 6 20 км ясно +12.0 -5.5 29 +10 +11 1029.0 967.6
12 15.02 Ю 4 20 км ясно +19.0 -0.5 27 +19 +26 1027.4 967.6
15 15.02 ЮЗ 2 20 км ясно +21.8 -5.4 16 +21 +25 комфорт 1024.0 964.9
18 15.02 ЮВ 4 15 км ясно +16.1 -3.9 25 +16 +16 1023.7 963.5 +22.2

 

Местоположение метеостанции Грис (Алжир): широта 35.22 долгота 0.15 высота над уровнем моря 513 м.

В архиве по умолчанию представлена погода в Грисе за последнюю неделю. Архивные данные за месяц целиком и за предыдущие месяцы, начиная с января 2011 года, Вы можете получить, выбрав интересующий диапазон дат из раскрывающегося списка и нажав кнопку "Ввод!".


*Определитесь, кто Вы:
робот инопланетянин человек

Внимание! Время в таблицах - всемирное. Для получения местного времени необходимо прибавить поправку, которая равна 1 ч.

Смотрите также архив погоды в соседних городах и на ближайших метеорологических станциях:

Погода в Саиде (Алжир) (39 км)
Погода в Релизане (Алжир) (67 км)
Погода в Оран-Тафрауи (Алжир) (67 км)
Погода в Сиди-Бель-Аббесе (Алжир) (70 км)
Погода в Мостаганеме (Алжир) (73 км)
Погода в Арзеве (Алжир) (77 км)
Погода в Оран аэропорту (Алжир) (82 км)
Погода в Оране (Алжир) (90 км)
Погода в Эль Кхейт (Алжир) (119 км)
Погода в Тиарете (Алжир) (121 км)

Пояснения к столбцам:

Ветер - указаны скорость ветра в м/с - средняя за 10 мин, порывы в срок и между сроками (в фигурных скобках) и направление, откуда дует ветер: С - северный, СВ - северо-восточный, В - восточный, ЮВ - юго-восточный, Ю - южный, ЮЗ - юго-западный, З - западный, СЗ - северо-западный.
Видимость - горизонтальная дальность видимости в метрах или километрах. При видимости от 1 до 10 км при отсутствии осадков обычно наблюдается дымка, при ухудшении видимости до 1 км и менее - туман. В сухую погоду видимость может ухудшаться дымом, пылью или мглою.
Явления - указаны атмосферные явления, наблюдавшиеся в срок или в последний час перед сроком; фигурными скобками обозначены явления, наблюдавшиеся между сроками (за 1-3 часа до срока); квадратными скобками обозначены град или гололедные отложения с указанием их диаметра в мм.
Облачность - указаны через наклонную черту общая и нижняя облачность в баллах и высота нижней границы облаков в метрах; квадратными скобками обозначены формы облаков: Ci - перистые, Cs - перисто-слоистые, Cc - перисто-кучевые, Ac - высококучевые, As - высокослоистые, Sc - слоисто-кучевые, Ns - слоисто-дождевые, Cu - кучевые, Cb - кучево-дождевые. Подробнее классификацию облаков см. в Атласе облаков (PDF).
T - Температура воздуха - температура, измеренная на высоте 2 м над землей.
Td - Температура точки росы - температура, при понижении до которой содержащийся в воздухе водяной пар достигнет насыщения.
f - Относительная влажность воздуха - влажноcть воздуха, измеренная на высоте 2 м над землей.
Te - Эффективная температура - температура, которую ощущает одетый по сезону человек в тени. Характеристика душности погоды. При расчете учитывается влияние влажности воздуха и скорости ветра на теплоощущения человека.
Tes - Эффективная температура на солнце - температура, которую ощущает человек, с поправкой на солнечный нагрев. Характеристика знойности погоды. Зависит от высоты солнца над горизонтом, облачности и скорости ветра. Ночью, в пасмурную погоду, а также при ветре 12 м/с и более поправка равна нулю.
P - Атмосферное давление - приведенное к уровню моря атмосферное давление.
Po - Атмосферное давление - измеренное на уровне метеостанции атмосферное давление.
Tmin - Минимальная температура - минимум температуры воздуха на высоте 2 м над землей.
Tmax - Максимальная температура - максимум температуры воздуха на высоте 2 м над землей.
R - Количество осадков - Количество выпавших осадков за период времени, мм. При наведении курсора мыши на число - период времени, за который выпало указанное количество осадков.
R24 - Количество осадков - Количество выпавших осадков за 24 часа, мм.
S - Снежный покров - Высота снежного покрова, см. При наведении курсора мыши на число - состояние снежного покрова и степень покрытия местности в баллах.